{"data":{"norad_id":43188,"intl_designator":"2018-014J","name":"S-NET A","alt_names":[],"object_type":"PAYLOAD","status":"ACTIVE","operator":null,"country":"GER","launch_date":"2018-02-01","launch_site_code":"VOSTO","launch_vehicle":null,"mission":null,"orbit_class":"UNKNOWN","rcs_meters":null,"size_class":null,"mass_kg":null,"dimensions":null,"purposes":[],"wikipedia_slug":null,"has_3d_model":false,"image_url":null,"decayed_at":null,"tle_current":{"epoch":"2026-09-20T01:05:03.252192Z","epoch_age_seconds":90962,"freshness":"FRESH","line1":"1 43188U 18014J   26263.04517653  .00002960  00000+0  15127-3 0  9993","line2":"2 43188  97.5264 167.4530 0010002  52.9335 307.2811 15.17423286473145","mean_motion":15.17423286,"eccentricity":0.0010002,"inclination_deg":97.5264,"raan_deg":167.453,"arg_perigee_deg":52.9335,"mean_anomaly_deg":307.2811,"bstar":0.00015127,"rev_number":47314,"period_min":94.897713333233,"perigee_km":506.73831663876,"apogee_km":520.52461027306,"semimajor_km":6891.7684634559,"source":"CELESTRAK","updated_at":"2026-09-20T09:00:14.307777Z"}}}